(297328) = 1999 US35

Discovered at Kitt Peak on 1999-10-30 by Spacewatch.

Orbit

Orbit type: Main Belt

Note: WebGL enabled browser required.

epoch2023-09-13.0
epoch JD2460200.5
perihelion date2021-03-14.84731
perihelion JD2459288.34731
argument of perihelion (°)247.39560
ascending node (°)225.34187
inclination (°)12.60538
eccentricity0.1439077
perihelion distance (AU)2.2079894
Tisserand w.r.t. Jupiter3.4
ΔV w.r.t. Earth (km/sec)10.1
semimajor axis (AU)2.5791487
mean anomaly (°)217.04851
mean daily motion (°/day)0.23795200
aphelion distance (AU)2.950
period (years)4.14
P-vector [x]-0.37068113
P-vector [y]0.91197081
P-vector [z]0.17579743
Q-vector [x]-0.91569542
Q-vector [y]-0.32722355
Q-vector [z]-0.23329518
absolute magnitude16.77
phase slope0.15
uncertainty0
referenceMPEC 2023-R130
observations used253
oppositions15
arc length (days)8716
first opposition used1999
last opposition used2023
residual rms (arc-secs)0.76
perturbers coarse indicatorM-v
perturbers precise indicator003Ek
first observation date used1999-10-30.0
last observation date used2023-09-10.0
computer nameMPCLINUX
JD of orbit computation2456847.604414
perihelion JD uncertainty (days)1.1254E-04
argument of perihelion uncertainty (°)3.5837E-05
ascending node uncertainty (°)2.4723E-05
inclination uncertainty (°)6.7741E-06
eccentricity uncertainty 7.3790E-08
perihelion distance uncertainty (AU)1.7813E-07
Minimum Orbit Intersection Distances (in AU)
for orbit epoch: 2460200.5, reference: E2023-SE5
Mercury1.90678
Venus1.51624
Earth1.25738
Mars0.72962
Jupiter2.32573
Saturn6.77679
Uranus16.0664
Neptune27.2381

Observations

272 total observations over interval: 1999 10 30.39939 – 2023 09 20.276922
These data are available for download (format description).

Date (UT) J2000 RA J2000 Dec Magn Location Ref
1999 10 30.39939 02 52 58.96 +17 50 24.2 20.0 V 691 – Steward Observatory, Kitt Peak-Spacewatch MPS 8614
1999 10 30.42101 02 52 57.81 +17 50 11.5 20.1 V 691 – Steward Observatory, Kitt Peak-Spacewatch MPS 8614
1999 10 30.44265 02 52 56.67 +17 49 58.5 20.1 V 691 – Steward Observatory, Kitt Peak-Spacewatch MPS 8614
1999 11 06.38288 02 46 53.42 +16 40 31.6 19.8 V 691 – Steward Observatory, Kitt Peak-Spacewatch MPS 8614
1999 11 06.40518 02 46 52.17 +16 40 18.1 19.8 V 691 – Steward Observatory, Kitt Peak-Spacewatch MPS 8614
1999 11 06.42751 02 46 50.97 +16 40 04.1 19.7 V 691 – Steward Observatory, Kitt Peak-Spacewatch MPS 8614
1999 11 09.22125 02 44 22.98 +16 11 20.6 19.6   704 – Lincoln Laboratory ETS, New Mexico MPS 8614
1999 11 09.23740 02 44 22.07 +16 11 10.2 20.0   704 – Lincoln Laboratory ETS, New Mexico MPS 8614
1999 11 09.25245 02 44 21.27 +16 11 01.0 19.7   704 – Lincoln Laboratory ETS, New Mexico MPS 8614
1999 11 12.28667 02 41 41.75 +15 39 41.3 19.6   704 – Lincoln Laboratory ETS, New Mexico MPS 8614
1999 11 12.30100 02 41 41.06 +15 39 31.0 20.0   704 – Lincoln Laboratory ETS, New Mexico MPS 8614
1999 11 12.32980 02 41 39.38 +15 39 14.0 19.8   704 – Lincoln Laboratory ETS, New Mexico MPS 8614
1999 11 12.34410 02 41 38.69 +15 39 04.4 20.1   704 – Lincoln Laboratory ETS, New Mexico MPS 8614
1999 11 16.28389 02 38 18.09 +14 58 39.1 20.3 V 691 – Steward Observatory, Kitt Peak-Spacewatch MPS 9952
1999 11 16.31561 02 38 16.44 +14 58 19.8 20.4 V 691 – Steward Observatory, Kitt Peak-Spacewatch MPS 9952
1999 11 16.34257 02 38 15.06 +14 58 03.2 20.2 V 691 – Steward Observatory, Kitt Peak-Spacewatch MPS 9952
2003 10 18.28000 01 27 30.93 +16 51 42.7 20.3 V 691 – Steward Observatory, Kitt Peak-Spacewatch MPS 284210
2003 10 18.30806 01 27 29.48 +16 51 26.1 20.2 V 691 – Steward Observatory, Kitt Peak-Spacewatch MPS 284210
2003 10 18.33633 01 27 28.00 +16 51 08.9 20.2 V 691 – Steward Observatory, Kitt Peak-Spacewatch MPS 284210
2003 10 20.33550 01 25 47.50 +16 30 58.1 19.5   644 – Palomar Mountain/NEAT MPS 284210
2003 10 20.35825 01 25 46.29 +16 30 43.8 19.5   644 – Palomar Mountain/NEAT MPS 284210
2003 10 20.38580 01 25 44.88 +16 30 27.2 19.5   644 – Palomar Mountain/NEAT MPS 284210
2005 04 05.15554 11 21 52.97 -11 08 53.7 18.7   644 – Palomar Mountain/NEAT MPS 284210
2005 04 05.21777 11 21 50.85 -11 08 12.7 19.9   644 – Palomar Mountain/NEAT MPS 284210
2005 04 05.28458 11 21 48.60 -11 07 27.6 19.0   644 – Palomar Mountain/NEAT MPS 284210
2007 10 13.21487 00 08 05.60 +13 11 25.5 20.2 V 703 – Catalina Sky Survey MPS 284210
2007 10 13.22238 00 08 05.13 +13 11 22.4 20.2 V 703 – Catalina Sky Survey MPS 284210
2007 10 13.22990 00 08 04.84 +13 11 17.3 20.0 V 703 – Catalina Sky Survey MPS 284210
2007 10 13.23741 00 08 04.45 +13 11 13.4 20.4 V 703 – Catalina Sky Survey MPS 284210
2007 10 21.18286 00 02 46.06 +11 49 19.3 20.2 V G96 – Mt. Lemmon Survey MPS 284210
2007 10 21.18817 00 02 45.85 +11 49 15.7 20.5 V G96 – Mt. Lemmon Survey MPS 284210
2007 10 21.19346 00 02 45.67 +11 49 13.0 20.2 V G96 – Mt. Lemmon Survey MPS 284210
2007 10 21.19876 00 02 45.42 +11 49 09.8 20.1 V G96 – Mt. Lemmon Survey MPS 284210
2009 02 20.29756 10 14 12.80 -11 02 01.8 19.5 V 703 – Catalina Sky Survey MPS 284210
2009 02 20.30484 10 14 12.37 -11 01 58.2 19.4 V 703 – Catalina Sky Survey MPS 284210
2009 02 20.31198 10 14 12.01 -11 01 56.0 19.4 V 703 – Catalina Sky Survey MPS 284210
2009 02 20.31925 10 14 11.65 -11 01 51.0 19.5 V 703 – Catalina Sky Survey MPS 284210
2011 08 25.97808 23 33 32.96 +14 21 16.9 20.3 R 461 – University of Szeged, Piszkesteto Stn. (Konkol MPS 388596
2011 08 25.98897 23 33 32.53 +14 21 15.6 20.2 R 461 – University of Szeged, Piszkesteto Stn. (Konkol MPS 388596
2011 09 18.46421 23 15 29.537 +12 03 35.43 20.1 i F51 – Pan-STARRS 1, Haleakala MPS 392563
2011 09 18.47637 23 15 28.923 +12 03 29.63 20.1 i F51 – Pan-STARRS 1, Haleakala MPS 392563
2011 09 21.31871 23 13 12.512 +11 39 38.34 20.5 g F51 – Pan-STARRS 1, Haleakala MPS 391035
2011 09 21.33042 23 13 11.910 +11 39 32.34 20.6 g F51 – Pan-STARRS 1, Haleakala MPS 391035
2011 09 21.47675 23 13 04.667 +11 38 16.71 20.2 r F51 – Pan-STARRS 1, Haleakala MPS 391035
2011 09 21.48761 23 13 04.141 +11 38 11.17 20.2 r F51 – Pan-STARRS 1, Haleakala MPS 391035
2011 10 30.12573 22 54 55.69 +05 51 31.4 20.8 V G96 – Mt. Lemmon Survey MPS 399892
2011 10 30.13201 22 54 55.69 +05 51 28.7 20.6 V G96 – Mt. Lemmon Survey MPS 399892
2011 10 30.13833 22 54 55.65 +05 51 26.1 20.3 V G96 – Mt. Lemmon Survey MPS 399892
2011 10 30.14462 22 54 55.65 +05 51 22.8 20.9 V G96 – Mt. Lemmon Survey MPS 399892
2011 10 30.15094 22 54 55.65 +05 51 20.5 21.0 V G96 – Mt. Lemmon Survey MPS 399892
2011 10 31.11521 22 54 55.04 +05 44 14.9 20.5 V G96 – Mt. Lemmon Survey MPS 399892
2011 10 31.12216 22 54 55.04 +05 44 11.7 20.8 V G96 – Mt. Lemmon Survey MPS 399892
2011 10 31.12913 22 54 55.00 +05 44 08.4 20.8 V G96 – Mt. Lemmon Survey MPS 399892
2011 10 31.13588 22 54 55.04 +05 44 05.8 20.5 V G96 – Mt. Lemmon Survey MPS 399892
2011 10 31.14273 22 54 54.97 +05 44 02.8 20.9 V G96 – Mt. Lemmon Survey MPS 399892
2013 01 17.30613 08 56 11.14 -05 06 36.4 20.0 V 703 – Catalina Sky Survey MPS 452182
2013 01 17.31119 08 56 10.89 -05 06 36.8 19.5 V 703 – Catalina Sky Survey MPS 452182
2013 01 17.31633 08 56 10.60 -05 06 36.9 19.5 V 703 – Catalina Sky Survey MPS 452182
2013 01 17.32143 08 56 10.42 -05 06 38.4 19.2 V 703 – Catalina Sky Survey MPS 452182
2013 01 18.20316 08 55 27.82 -05 07 37.7 19.4 G G45 – Space Surveillance Telescope, Atom Site MPS 1609129
2013 01 18.24532 08 55 25.66 -05 07 39.7 19.1 G G45 – Space Surveillance Telescope, Atom Site MPS 1609129
2013 01 18.34452 08 55 20.57 -05 07 44.7 20.0 G G45 – Space Surveillance Telescope, Atom Site MPS 1609129
2013 01 18.37373 08 55 19.03 -05 07 46.9 20.2 G G45 – Space Surveillance Telescope, Atom Site MPS 1609129
2013 02 12.40174 08 33 34.894 -03 57 47.40 19.9 g F51 – Pan-STARRS 1, Haleakala MPS 456123
2013 02 12.41458 08 33 34.263 -03 57 42.75 20.0 g F51 – Pan-STARRS 1, Haleakala MPS 456123
2013 02 12.42707 08 33 33.644 -03 57 38.19 19.4 r F51 – Pan-STARRS 1, Haleakala MPS 456123
2013 02 12.43955 08 33 33.025 -03 57 33.64 19.5 r F51 – Pan-STARRS 1, Haleakala MPS 456123
2013 03 07.21579 08 22 07.46 -01 08 13.8 20.1 V 703 – Catalina Sky Survey MPS 459124
2013 03 07.22313 08 22 07.39 -01 08 10.7 20.3 V 703 – Catalina Sky Survey MPS 459124
2013 03 07.23048 08 22 07.35 -01 08 06.3 19.7 V 703 – Catalina Sky Survey MPS 459124
2013 03 07.23784 08 22 07.21 -01 08 02.9 20.0 V 703 – Catalina Sky Survey MPS 459124
2014 05 28.38525 17 06 46.051 -13 37 46.01 20.9 w F51 – Pan-STARRS 1, Haleakala MPS 517723
2014 05 28.39797 17 06 45.351 -13 37 42.12 21.0 w F51 – Pan-STARRS 1, Haleakala MPS 517723
2014 05 28.41067 17 06 44.638 -13 37 38.02 21.1 w F51 – Pan-STARRS 1, Haleakala MPS 517723
2014 05 28.42337 17 06 43.933 -13 37 33.89 20.7 w F51 – Pan-STARRS 1, Haleakala MPS 517723
2014 06 21.22220 16 45 20.78 -11 51 47.1 21.0 V G96 – Mt. Lemmon Survey MPS 521159
2014 06 21.23004 16 45 20.35 -11 51 44.9 20.3 V G96 – Mt. Lemmon Survey MPS 521159
2014 06 21.23786 16 45 19.99 -11 51 42.9 20.7 V G96 – Mt. Lemmon Survey MPS 521159
2014 06 21.24570 16 45 19.62 -11 51 41.4 21.1 V G96 – Mt. Lemmon Survey MPS 521159
2014 07 04.33470 16 36 13.374 -11 18 42.87 20.9 i F51 – Pan-STARRS 1, Haleakala MPS 522725
2014 07 04.34765 16 36 12.917 -11 18 41.60 21.2 i F51 – Pan-STARRS 1, Haleakala MPS 522725
2014 07 04.37351 16 36 12.000 -11 18 38.84 20.8 i F51 – Pan-STARRS 1, Haleakala MPS 522725
2015 08 08.56972 22 41 32.098 +10 37 43.66 20.5 i F51 – Pan-STARRS 1, Haleakala MPS 620914
2015 08 08.58269 22 41 31.590 +10 37 42.99 20.5 i F51 – Pan-STARRS 1, Haleakala MPS 620914
2015 08 08.59549 22 41 31.090 +10 37 41.82 20.2 i F51 – Pan-STARRS 1, Haleakala MPS 620914
2015 08 10.55616 22 40 15.731 +10 34 49.20 20.8 w F51 – Pan-STARRS 1, Haleakala MPS 620914
2015 08 10.56887 22 40 15.209 +10 34 47.90 20.7 w F51 – Pan-STARRS 1, Haleakala MPS 620914
2015 08 10.58161 22 40 14.685 +10 34 46.59 20.9 w F51 – Pan-STARRS 1, Haleakala MPS 620914
2015 08 10.59434 22 40 14.172 +10 34 45.17 20.9 w F51 – Pan-STARRS 1, Haleakala MPS 620914
